Meeker, CO

12:41 AM MST on January 20, 2018 (GMT -0700)
Meeker

Weather History for KEEO - March, 2013

Change the Weather History Date:

Tuesday, March 26, 2013

  Actual Average Record
Temperature  
Mean Temperature 37 °F 38 °F  
Max Temperature 53 °F 52 °F 66 °F (2004)
Min Temperature 20 °F 25 °F 10 °F (2011)
Degree Days  
Heating Degree Days 28 27  
Month to date heating degree days 851 797  
Since 1 July heating degree days 6863 6602  
Cooling Degree Days 0 0  
Month to date cooling degree days 0 0  
Year to date cooling degree days 0 0  
Moisture  
Dew Point 16 °F    
Average Humidity 50    
Maximum Humidity 73    
Minimum Humidity 26    
Precipitation  
Precipitation 0.00 in 0.06 in 0.43 in (2009)
Month to date precipitation 0.50 1.00  
Year to date precipitation 1.54 2.89  
Sea Level Pressure  
Sea Level Pressure 30.03 in    
Wind  
Wind Speed 5 mph (NNW)    
Max Wind Speed 21 mph    
Max Gust Speed 30 mph    
Visibility 10 miles    
Events      
T = Trace of Precipitation, MM = Missing Value Source: NWS Daily Summary

Daily Weather History Graph

Daily Weather History Graph

Search for Another Location

Airport or City:

Trip Planner

Search our weather history database for the weather conditions in past years. The results will help you decide how hot, cold, wet, or windy it might be!

Date:

Astronomy

Mar. 26, 2013 Rise Set
Actual Time 7:04 AM MDT 7:30 PM MDT
Civil Twilight 6:37 AM MDT 7:57 PM MDT
Nautical Twilight 6:05 AM MDT 8:29 PM MDT
Astronomical Twilight 5:33 AM MDT 9:02 PM MDT
Moon 7:10 PM MDT (3/26) 6:22 AM MDT (3/26)
Length of Visible Light 13h 19m
Length of Day
12h 25m
Waxing Gibbous, 99% of the Moon is Illuminated
Mar 26
Waxing Gibbous
Mar 27
Full
Apr 2
Last Quarter
Apr 10
New
Apr 18
First Quarter

Hourly Weather History & Observations

Time (MDT) Temp. Windchill Dew Point Humidity Pressure Visibility Wind Dir Wind Speed Gust Speed Precip Events Conditions
12:53 AM 23.0 °F 15.8 °F 12.0 °F 63% 30.19 in 10.0 mi NE 5.8 mph - N/A   Clear
1:53 AM 21.0 °F 13.4 °F 10.9 °F 65% 30.20 in 10.0 mi NE 5.8 mph - N/A   Scattered Clouds
2:53 AM 21.9 °F - 10.9 °F 63% 30.17 in 10.0 mi Calm Calm - N/A   Overcast
3:53 AM 21.0 °F 16.2 °F 12.9 °F 71% 30.15 in 10.0 mi NNE 3.5 mph - N/A   Overcast
4:53 AM 19.9 °F 12.1 °F 12.0 °F 71% 30.15 in 10.0 mi NE 5.8 mph - N/A   Clear
5:53 AM 21.9 °F 14.5 °F 9.0 °F 58% 30.13 in 10.0 mi East 5.8 mph - N/A   Clear
6:53 AM 21.9 °F 17.2 °F 12.0 °F 66% 30.14 in 10.0 mi NE 3.5 mph - N/A   Partly Cloudy
7:53 AM 24.1 °F - 14.0 °F 65% 30.14 in 10.0 mi Calm Calm - N/A   Mostly Cloudy
8:53 AM 28.0 °F - 14.0 °F 56% 30.14 in 10.0 mi Calm Calm - N/A   Mostly Cloudy
9:53 AM 33.1 °F - 14.0 °F 46% 30.10 in 10.0 mi Calm Calm - N/A   Partly Cloudy
10:53 AM 37.9 °F - 16.0 °F 41% 30.06 in 10.0 mi Calm Calm - N/A   Overcast
11:53 AM 44.1 °F - 16.0 °F 32% 30.01 in 10.0 mi Calm Calm - N/A   Mostly Cloudy
12:53 PM 46.9 °F - 18.0 °F 32% 29.98 in 10.0 mi SSW 10.4 mph - N/A   Clear
1:53 PM 50.0 °F - 19.0 °F 29% 29.95 in 10.0 mi WSW 12.7 mph 20.7 mph N/A   Clear
2:53 PM 53.1 °F - 19.9 °F 27% 29.90 in 10.0 mi SSW 16.1 mph 24.2 mph N/A   Clear
3:53 PM 51.1 °F - 19.0 °F 28% 29.91 in 10.0 mi West 13.8 mph - N/A   Overcast
4:53 PM 50.0 °F - 18.0 °F 28% 29.91 in 10.0 mi WSW 16.1 mph 21.9 mph N/A   Mostly Cloudy
5:53 PM 51.1 °F - 17.1 °F 26% 29.88 in 10.0 mi SW 13.8 mph - N/A   Scattered Clouds
6:53 PM 48.9 °F - 18.0 °F 29% 29.90 in 10.0 mi WNW 5.8 mph - N/A   Overcast
7:53 PM 43.0 °F 41.3 °F 21.0 °F 42% 29.93 in 10.0 mi WNW 3.5 mph - N/A   Overcast
8:53 PM 41.0 °F - 21.0 °F 45% 29.94 in 10.0 mi Calm Calm - N/A   Mostly Cloudy
9:53 PM 36.0 °F 32.1 °F 23.0 °F 59% 29.96 in 10.0 mi ENE 4.6 mph - N/A   Clear
10:53 PM 35.1 °F - 23.0 °F 61% 29.94 in 10.0 mi Calm Calm - N/A   Scattered Clouds
11:53 PM 36.0 °F - 24.1 °F 62% 29.92 in 10.0 mi Calm Calm - N/A   Overcast